Regional Weather Roundup
Issued by NWS

Home | Current Version | Previous Version | Graphics & Text | Print | Product List | Glossary On
Versions: 1 2 3 4 5 6 7 8 9 10 11 12 13 14 15 16 17 18 19 20 21 22 23 24 25 26 27 28 29 30 31 32 33 34 35 36 37 38 39 40 41 42 43 44 45 46 47 48 49 50
000
ASUS43 KDMX 212107
RWRIA

WEATHER ROUNDUP FOR IOWA
NATIONAL WEATHER SERVICE DES MOINES IA
300 PM CST SUN DEC 21 2014

NOTE: "FAIR" INDICATES FEW OR NO CLOUDS BELOW 12,000 FEET WITH NO
SIGNIFICANT WEATHER AND/OR OBSTRUCTIONS TO VISIBILITY.

* - THESE STATIONS ARE NOT NWS STATIONS...THUS NOT UNDER NWS
QUALITY CONTROL.  THEY ALSO DO NOT REPORT WEATHER SUCH
AS PRECIPITATION OR FOG.

IAZ001>003-012>014-020>022-031>034-043>046-212200-
   NORTHWEST IOWA

CITY           SKY/WX    TMP DP  RH WIND       PRES   REMARKS
CARROLL *      CLOUDY    39  39 100 S18       29.75S FOG     WCI  30
CHEROKEE *     CLOUDY    39  39 100 S16G23    29.70S FOG     WCI  30
DENISON *      CLOUDY    39  39 100 S20G29    29.71F FOG     WCI  30
LE MARS *      CLOUDY    41  39  93 S22       29.66F FOG
ORANGE CITY *  CLOUDY    39  37  93 S17G25    29.65F FOG     WCI  30
SHELDON *      CLOUDY    39  39 100 S18G24    29.64F FOG     WCI  30
SIOUX CITY     CLOUDY    42  38  85 S20G25    29.69F
SPENCER        CLOUDY    38  36  92 S15       29.69S FOG     WCI  29
STORM LAKE *   CLOUDY    37  37 100 S15G24    29.71R FOG     WCI  28
$$

IAZ055>058-069>071-079>083-090>094-212200-
   SOUTHWEST IOWA

CITY           SKY/WX    TMP DP  RH WIND       PRES   REMARKS
ATLANTIC *     CLOUDY    39  39 100 S18G26    29.76F WCI  30
AUDUBON *      SUNNY     39  34  81 S15       29.77S HAZE    WCI  31
CLARINDA *     CLOUDY    41  41 100 S12G17    29.82S FOG
COUNCIL BLFS * CLOUDY    41  41 100 S13G21    29.74S FOG
CRESTON *      CLOUDY    39  39 100 S16       29.80F WCI  30
HARLAN  *      CLOUDY    39  39 100 S20G29    29.78S WCI  30
LAMONI         CLOUDY    41  38  89 S13G18    29.83F
RED OAK *      CLOUDY    41  39  93 S18G25    29.78F
SHENANDOAH *   CLOUDY    43  41  93 S15       29.79F
$$

IAZ047>049-059>061-072>074-084-212200-
   CENTRAL IOWA

CITY           SKY/WX    TMP DP  RH WIND       PRES   REMARKS
AMES           CLOUDY    41  34  76 S16G23    29.81F
ANKENY *       CLOUDY    41  37  87 S14G24    29.82F
CHARITON *     CLOUDY    41  39  93 S17       29.85S FOG
DES MOINES     CLOUDY    42  36  79 S16G24    29.83F
GRINNELL*      CLOUDY    39  37  93 S9        29.86S FOG     WCI  33
KNOXVILLE *    CLOUDY    41  39  93 S15       29.84S FOG
MARSHALLTOWN   CLOUDY    39  37  92 S13       29.83F WCI  31
PELLA *        CLOUDY    41  39  93 S13       29.87F
PERRY *        CLOUDY    41  37  87 S17       29.79F
$$

IAZ004>006-015-016-023>025-035-036-212200-
   NORTH CENTRAL IOWA

CITY           SKY/WX    TMP DP  RH WIND       PRES   REMARKS
ALGONA *       CLOUDY    37  37 100 S25G32    29.72F FOG     WCI  26
CLARION *      CLOUDY    37  37 100 S16       29.77F FOG     WCI  28
ESTHERVILLE    CLOUDY    37  36  96 S20       29.69S FOG     WCI  27
FORT DODGE *   CLOUDY    39  36  87 S16G22    29.77S WCI  30
MASON CITY     CLOUDY    37  35  92 S18       29.79F FOG     WCI  27
FOREST CITY *  CLOUDY    37  36  93 S12G23    29.75F FOG     WCI  30
IOWA FALLS *   CLOUDY    39  36  87 S15G21    29.81S WCI  31
$$

IAZ007>011-017>019-026>030-037>042-050>054-066-212200-
   NORTHEAST IOWA

CITY           SKY/WX    TMP DP  RH WIND       PRES   REMARKS
CEDAR RAPIDS   CLOUDY    40  36  86 S16G22    29.89F WCI  31
CHARLES CITY * CLOUDY    37  37 100 S15G21    29.83S FOG     WCI  28
CLINTON *      CLOUDY    37  32  81 S13       30.00F WCI  29
DECORAH *      CLOUDY    37  36  93 S13G21    29.85R FOG     WCI  29
DUBUQUE        CLOUDY    36  34  92 S17       29.92F FOG     WCI  26
MONTICELLO *   CLOUDY    37  37 100 SE15      29.92S WCI  28
OELWEIN *      CLOUDY    37  36  93 S16G23    29.86F FOG     WCI  28
WATERLOO       CLOUDY    39  37  92 S16       29.84F WCI  30
$$

IAZ064-065-067-068-078-212200-
   EAST CENTRAL IOWA

CITY           SKY/WX    TMP DP  RH WIND       PRES   REMARKS
DAVENPORT      CLOUDY    39  32  76 SE17      29.97F WCI  30
IOWA CITY      CLOUDY    41  36  82 S12       29.93F
MT. PLEASANT * CLOUDY    41  37  87 SE12      29.94S
MUSCATINE *    CLOUDY    43  36  75 SE12G17   29.96S
QUAD CITIES    CLOUDY    40  33  76 S14       29.97F WCI  32
$$

IAZ062-063-075>077-085>089-095>099-212200-
   SOUTHEAST IOWA

CITY           SKY/WX    TMP DP  RH WIND       PRES   REMARKS
BURLINGTON     CLOUDY    43  35  73 S13       29.96S
FAIRFIELD *    CLOUDY    43  36  75 S14       29.91F
FORT MADISON * CLOUDY    45  39  81 SE7       29.96S
KEOKUK *       CLOUDY    45  36  70 S12G17    29.94S
OSKALOOSA *    CLOUDY    41  37  87 S14       29.88F
CENTERVILLE *  CLOUDY    41  39  93 S12       29.89S
OTTUMWA        CLOUDY    42  37  82 S14       29.88F
WASHINGTON *   CLOUDY    41  41 100 S13       29.92F
$$

ABBREVIATIONS USED IN REMARKS
   TC - TEMPERATURES IN CELSIUS
  WCI - WIND CHILL INDEX
   HX - HEAT INDEX
  VSB - VISIBILITY
$$




USA.gov is the U.S. government's official web portal to all federal, state and local government web resources and services.